FENGYUN 1C DEB, 36229

Orbit data source: Space-Track

FENGYUN 1C DEB, 36229 is space debris in SSO originally from a launch on Mon, 10 May 1999 UTC launched from the Taiyaun Space Center, China (TSC). Fengyun 1C debris stems from the Chinese weather satellite Fengyun-1C, which was intentionally destroyed by a Chinese anti-satellite missile in 2007. This event dramatically increased the amount of space debris, with thousands of trackable fragments posing hazards to satellites and human spaceflight. The Fengyun 1C debris cloud has become a focal point in discussions about space sustainability and the need for international regulations to prevent the creation of new debris.

Loading next visibility...
Identifier
36229, 1999-025DVE
Orbit
SSO
Country
Flag of CNCN / PRC
Related business
Manufacturer
Unknown
Mission
Spacecraft
Bus & Motor
Unknown
Mass
Unknown
Launch date (UTC)
1999-05-10 (27 years ago)
Launch vehicle
Unknown
Launch site
Taiyaun Space Center, China (TSC)
Object type
Payload
Rocket body
Debris
Shape & HBR
Unknown shape, 0.1 m
Radar Cross Section
Small (<0.1 m²)

Expand to show TLE details & history
Last TLE update: 2 weeks ago

TLE from 2 weeks ago
0 FENGYUN 1C DEB
1 36229U 99025DVE 26149.43835534  .00003257  00000-0  18477-2 0  9990
2 36229 100.9197  48.9922 0105610  43.5172 317.4263 14.08147222656150
Epoch: 2026-05-29T10:31Z
TLE epoch observation values (Epoch: 2026-05-29T10:31:13.901Z)
Latitude
-0.00005°
Longitude
4.21556°
Altitude
812.565 km
Speed
7.476 km/s
True Right ascension
03h 15m 58s
True Declination
0° 00' 00"
Sunlit
Object was in daylight at epoch
Visualization orbit readout
Latitude
Unknown
Longitude
Unknown
Altitude
Unknown
Speed
Unknown
Apparent Right ascension
Unknown
Apparent Declination
Unknown
Sunlit
N/A
Visualization observer readout
Local Sidereal Time
06:18:38
Azimuth
Unknown
Elevation
Unknown
Doppler factor
Unknown
Orbital elements
Apogee altitude
939.485 km
Perigee altitude
786.537 km
Semi-major axis
7,241.148 km
Eccentricity
0.01056
Inclination
100.9197°
RAAN
48.9922°
Arg. of periapsis
43.5172°
True anomaly
316.59955°
Mean anomaly
317.4263°
Eccentric anomaly
317.01373°
Mean motion
3.52235 °/min
Orbital period
102.2 mins
BSTAR
0.0018477
Loading maneuver chart data...
Computing Atmospheric mass density...

Documentation

Showing up to 5 results
|